W8SZ Weather Reports


time (UTC)temp
F
wind
direction
speed
knots
gust
knots
rain 1hr
in
rain 24hr
in
rain mn
in
humidity
%
barometer
mb
20180421150357 42 22 7.0 0.0 0.00 0.00 0.00 79 1030.4
20180421145850 42 22 5.2 0.0 0.00 0.00 0.00 79 1030.5
20180421145353 42 22 5.2 0.0 0.00 0.00 0.00 78 1030.2
20180421144913 43 22 6.1 0.0 0.00 0.00 0.00 77 1030.2
20180421144337 43 22 6.1 0.0 0.00 0.00 0.00 76 1030.3
20180421143841 44 22 5.2 0.0 0.00 0.00 0.00 74 1030.0
20180421143407 45 22 4.3 0.0 0.00 0.00 0.00 71 1030.2
20180421142841 46 22 2.6 0.0 0.00 0.00 0.00 67 1030.5
20180421142343 47 22 5.2 0.0 0.00 0.00 0.00 61 1030.6
20180421141849 47 22 3.5 0.0 0.00 0.00 0.00 59 1030.5
20180421141352 47 21 2.6 0.0 0.00 0.00 0.00 58 1030.4
20180421140854 47 21 2.6 0.0 0.00 0.00 0.00 58 1030.4
20180421140359 47 21 2.6 0.0 0.00 0.00 0.00 57 1030.4
20180421135850 46 21 2.6 0.0 0.00 0.00 0.00 58 1030.5
20180421135356 46 21 4.3 0.0 0.00 0.00 0.00 60 1030.6
20180421134841 45 22 4.3 0.0 0.00 0.00 0.00 61 1030.3
20180421134341 44 22 2.6 0.0 0.00 0.00 0.00 62 1030.5
20180421133847 43 22 4.3 0.0 0.00 0.00 0.00 63 1030.6
20180421133351 42 22 3.5 0.0 0.00 0.00 0.00 67 1030.6
20180421132844 42 22 2.6 0.0 0.00 0.00 0.00 68 1030.8
20180421132351 41 22 2.6 0.0 0.00 0.00 0.00 67 1030.9
20180421131908 41 22 0.0 0.0 0.00 0.00 0.00 69 1030.8
20180421131353 40 22 2.6 0.0 0.00 0.00 0.00 67 1030.7
20180421130852 40 22 1.7 0.0 0.00 0.00 0.00 68 1030.7
20180421130418 39 22 1.7 0.0 0.00 0.00 0.00 71 1030.5
20180421125851 39 22 1.7 0.0 0.00 0.00 0.00 71 1030.9
20180421125339 38 22 0.9 0.0 0.00 0.00 0.00 73 1030.9
20180421124843 37 22 0.9 0.0 0.00 0.00 0.00 76 1030.8
20180421124406 37 22 1.7 0.0 0.00 0.00 0.00 76 1030.9
20180421123833 36 22 2.6 0.0 0.00 0.00 0.00 78 1030.9
20180421123400 36 22 1.7 0.0 0.00 0.00 0.00 80 1030.7
20180421122855 35 22 0.9 0.0 0.00 0.00 0.00 82 1030.8
20180421122412 35 22 0.0 0.0 0.00 0.00 0.00 84 1030.4
20180421121854 34 22 0.9 0.0 0.00 0.00 0.00 84 1030.4
20180421121339 34 22 0.0 0.0 0.00 0.00 0.00 85 1030.5
20180421120844 34 22 0.9 0.0 0.00 0.00 0.00 86 1030.3
20180421120351 33 22 0.0 0.0 0.00 0.00 0.00 86 1030.5
20180421115845 33 22 0.9 0.0 0.00 0.00 0.00 87 1030.5
20180421115349 33 22 0.0 0.0 0.00 0.00 0.00 87 1030.5
20180421114853 33 22 0.0 0.0 0.00 0.00 0.00 86 1030.3
20180421114400 32 22 1.7 0.0 0.00 0.00 0.00 86 1030.4
20180421113838 32 22 0.0 0.0 0.00 0.00 0.00 86 1030.5
20180421113405 32 22 0.0 0.0 0.00 0.00 0.00 85 1030.4
20180421112859 32 22 0.9 0.0 0.00 0.00 0.00 85 1030.3
20180421112358 31 22 0.9 0.0 0.00 0.00 0.00 85 1030.2
20180421111838 31 22 1.7 0.0 0.00 0.00 0.00 85 1030.3
20180421111404 31 22 0.0 0.0 0.00 0.00 0.00 86 1030.0
20180421110908 31 22 0.0 0.0 0.00 0.00 0.00 85 1030.4
20180421110353 31 22 0.0 0.0 0.00 0.00 0.00 85 1030.3
20180421105844 31 22 0.0 0.0 0.00 0.00 0.00 85 1030.1
20180421105348 31 22 0.0 0.0 0.00 0.00 0.00 84 1030.3
20180421104850 30 22 0.9 0.0 0.00 0.00 0.00 85 1030.1
20180421104354 30 22 0.9 0.0 0.00 0.00 0.00 85 1030.4
20180421103836 30 22 0.0 0.0 0.00 0.00 0.00 85 1030.0
20180421103405 30 22 1.7 0.0 0.00 0.00 0.00 86 1030.3
20180421102836 30 22 0.0 0.0 0.00 0.00 0.00 85 1030.2
20180421102338 30 22 1.7 0.0 0.00 0.00 0.00 84 1030.3
20180421101841 30 22 0.9 0.0 0.00 0.00 0.00 84 1030.4
20180421101344 30 22 0.0 0.0 0.00 0.00 0.00 83 1030.3
20180421100850 30 22 0.0 0.0 0.00 0.00 0.00 84 1030.2
20180421100357 30 22 0.0 0.0 0.00 0.00 0.00 84 1030.0
20180421095848 30 22 0.9 0.0 0.00 0.00 0.00 83 1030.1
20180421095333 30 22 0.9 0.0 0.00 0.00 0.00 81 1030.0
20180421094839 30 22 0.0 0.0 0.00 0.00 0.00 80 1030.0
20180421094402 30 22 0.9 0.0 0.00 0.00 0.00 77 1030.0
20180421093845 30 22 0.9 0.0 0.00 0.00 0.00 77 1029.8
20180421093415 31 22 0.9 0.0 0.00 0.00 0.00 77 1030.0
20180421092846 31 22 0.0 0.0 0.00 0.00 0.00 77 1029.9
20180421092407 31 22 0.0 0.0 0.00 0.00 0.00 75 1029.8
20180421091913 31 22 0.0 0.0 0.00 0.00 0.00 72 1030.0
20180421091354 31 22 0.0 0.0 0.00 0.00 0.00 74 1030.1
20180421090859 31 22 0.0 0.0 0.00 0.00 0.00 74 1030.0
20180421090402 31 22 0.0 0.0 0.00 0.00 0.00 73 1030.0
20180421085854 31 22 0.0 0.0 0.00 0.00 0.00 72 1030.0
20180421085337 31 22 0.9 0.0 0.00 0.00 0.00 75 1029.7
20180421084839 31 22 0.0 0.0 0.00 0.00 0.00 77 1029.9
20180421084404 31 22 0.0 0.0 0.00 0.00 0.00 77 1029.8
20180421083850 31 22 0.0 0.0 0.00 0.00 0.00 77 1029.9
20180421083350 31 22 0.0 0.0 0.00 0.00 0.00 78 1029.7
20180421082844 31 22 0.0 0.0 0.00 0.00 0.00 79 1030.0
20180421082349 31 22 0.0 0.0 0.00 0.00 0.00 80 1029.7
20180421081850 30 22 0.0 0.0 0.00 0.00 0.00 79 1029.8
20180421081338 30 22 0.9 0.0 0.00 0.00 0.00 82 1029.7
20180421080842 30 22 0.0 0.0 0.00 0.00 0.00 83 1029.6
20180421080402 30 22 0.0 0.0 0.00 0.00 0.00 83 1029.7
20180421075856 30 22 0.9 0.0 0.00 0.00 0.00 85 1029.8
20180421075339 29 22 0.0 0.0 0.00 0.00 0.00 87 1029.7
20180421074844 29 22 0.0 0.0 0.00 0.00 0.00 86 1029.8
20180421074349 29 22 0.0 0.0 0.00 0.00 0.00 85 1029.7
20180421073833 29 22 0.0 0.0 0.00 0.00 0.00 85 1029.6
20180421073402 29 22 0.0 0.0 0.00 0.00 0.00 86 1029.8
20180421072852 29 22 0.0 0.0 0.00 0.00 0.00 86 1029.7
20180421072337 29 22 0.9 0.0 0.00 0.00 0.00 86 1029.7
20180421071858 29 22 0.0 0.0 0.00 0.00 0.00 86 1029.7
20180421071402 29 22 0.0 0.0 0.00 0.00 0.00 86 1029.7
20180421070842 29 22 0.0 0.0 0.00 0.00 0.00 87 1029.7
20180421070345 29 22 0.0 0.0 0.00 0.00 0.00 86 1029.8
20180421065843 29 22 0.0 0.0 0.00 0.00 0.00 86 1029.8
20180421065406 29 22 0.0 0.0 0.00 0.00 0.00 87 1029.8
20180421064851 29 22 0.9 0.0 0.00 0.00 0.00 87 1029.6
20180421064352 29 22 0.9 0.0 0.00 0.00 0.00 87 1029.9
20180421063856 29 22 1.7 0.0 0.00 0.00 0.00 87 1030.0
20180421063358 29 22 0.9 0.0 0.00 0.00 0.00 88 1030.0
20180421062833 29 22 0.9 0.0 0.00 0.00 0.00 88 1030.1
20180421062356 28 22 1.7 0.0 0.00 0.00 0.00 89 1030.2
20180421061841 28 22 0.9 0.0 0.00 0.00 0.00 89 1029.8
20180421061344 28 22 0.0 0.0 0.00 0.00 0.00 89 1030.1
20180421060849 28 22 0.0 0.0 0.00 0.00 0.00 89 1029.9
20180421060351 28 22 0.9 0.0 0.00 0.00 0.00 89 1030.4
20180421055843 28 22 0.0 0.0 0.00 0.00 0.00 88 1030.0
20180421055349 28 22 0.0 0.0 0.00 0.00 0.00 88 1030.0
20180421054851 29 22 0.0 0.0 0.00 0.00 0.00 88 1030.2
20180421054356 29 22 0.9 0.0 0.00 0.00 0.00 88 1030.2
20180421053840 29 22 0.0 0.0 0.00 0.00 0.00 87 1030.3
20180421053403 29 22 0.0 0.0 0.00 0.00 0.00 87 1030.0
20180421052839 29 22 0.0 0.0 0.00 0.00 0.00 87 1030.1
20180421052343 29 22 0.9 0.0 0.00 0.00 0.00 86 1030.2
20180421051903 29 22 0.0 0.0 0.00 0.00 0.00 86 1030.1
20180421051346 29 22 0.9 0.0 0.00 0.00 0.00 86 1030.1
20180421050850 29 22 0.0 0.0 0.00 0.00 0.00 86 1030.3
20180421050416 29 22 0.9 0.0 0.00 0.00 0.00 86 1030.3
20180421045911 29 22 0.9 0.0 0.00 0.00 0.00 86 1030.1
20180421045352 29 22 0.0 0.0 0.00 0.00 0.00 85 1030.2
20180421044838 29 22 0.0 0.0 0.00 0.00 0.00 86 1030.1
20180421044402 29 22 0.0 0.0 0.00 0.00 0.00 86 1030.1
20180421043905 29 22 0.9 0.0 0.00 0.00 0.00 87 1030.1
20180421043345 29 22 0.0 0.0 0.00 0.00 0.00 87 1029.7
20180421042900 29 22 0.9 0.0 0.00 0.00 0.00 86 1030.0
20180421042342 29 22 0.9 0.0 0.00 0.00 0.00 86 1029.9
20180421041907 29 22 0.0 0.0 0.00 0.00 0.00 86 1029.9
20180421041353 29 22 0.9 0.0 0.00 0.00 0.00 84 1030.0
20180421040856 29 22 0.0 0.0 0.00 0.00 0.00 84 1029.9
20180421040359 29 22 3.5 0.0 0.00 0.00 0.00 85 1029.9
20180421035851 28 22 0.9 0.0 0.00 0.00 0.00 85 1030.2
20180421035332 28 22 0.0 0.0 0.00 0.00 0.00 86 1030.1
20180421034840 28 22 2.6 0.0 0.00 0.00 0.00 87 1030.1
20180421034344 28 22 0.0 0.0 0.00 0.00 0.00 87 1030.0
20180421033846 28 22 0.9 0.0 0.00 0.00 0.00 86 1029.9
20180421033349 28 22 1.7 0.0 0.00 0.00 0.00 87 1030.3
20180421032845 28 22 0.0 0.0 0.00 0.00 0.00 87 1030.1
20180421032410 28 22 0.9 0.0 0.00 0.00 0.00 87 1030.1
20180421031854 28 22 0.0 0.0 0.00 0.00 0.00 87 1030.1
20180421031339 28 22 0.0 0.0 0.00 0.00 0.00 87 1030.1
20180421030843 28 22 0.9 0.0 0.00 0.00 0.00 87 1030.0
20180421030346 28 22 0.9 0.0 0.00 0.00 0.00 87 1029.9
20180421025903 28 22 0.9 0.0 0.00 0.00 0.00 86 1030.2
20180421025406 28 22 0.9 0.0 0.00 0.00 0.00 86 1029.8
20180421024850 28 22 0.9 0.0 0.00 0.00 0.00 85 1029.8
20180421024352 28 22 0.0 0.0 0.00 0.00 0.00 85 1029.9
20180421023853 28 22 0.0 0.0 0.00 0.00 0.00 84 1029.6
20180421023352 28 22 0.9 0.0 0.00 0.00 0.00 83 1029.4
20180421022846 28 22 0.9 0.0 0.00 0.00 0.00 84 1030.1
20180421022413 28 22 1.7 0.0 0.00 0.00 0.00 84 1029.7
20180421021856 28 22 0.0 0.0 0.00 0.00 0.00 84 1030.0
20180421021338 28 22 0.9 0.0 0.00 0.00 0.00 84 1029.8
20180421020843 28 22 0.9 0.0 0.00 0.00 0.00 85 1030.2
20180421020346 29 22 1.7 0.0 0.00 0.00 0.00 84 1029.9
20180421015841 29 22 1.7 0.0 0.00 0.00 0.00 85 1029.7
20180421015340 29 22 1.7 0.0 0.00 0.00 0.00 85 1030.0
20180421014845 29 22 2.6 0.0 0.00 0.00 0.00 85 1029.6
20180421014347 29 22 0.9 0.0 0.00 0.00 0.00 84 1029.8
20180421013848 29 22 1.7 0.0 0.00 0.00 0.00 85 1029.8
20180421013352 29 22 0.9 0.0 0.00 0.00 0.00 85 1029.5
20180421012847 29 22 1.7 0.0 0.00 0.00 0.00 84 1029.6
20180421012349 29 22 1.7 0.0 0.00 0.00 0.00 85 1029.4
20180421011837 29 22 1.7 0.0 0.00 0.00 0.00 84 1029.6
20180421011402 29 22 0.9 0.0 0.00 0.00 0.00 83 1029.7
20180421010841 30 22 0.9 0.0 0.00 0.00 0.00 83 1029.5
20180421010406 30 22 0.0 0.0 0.00 0.00 0.00 81 1029.6
20180421005841 30 22 0.9 0.0 0.00 0.00 0.00 81 1029.5
20180421005404 30 22 0.9 0.0 0.00 0.00 0.00 81 1029.8
20180421004846 31 22 0.9 0.0 0.00 0.00 0.00 81 1029.8
20180421004406 31 22 0.9 0.0 0.00 0.00 0.00 81 1030.1
20180421003847 31 22 1.7 0.0 0.00 0.00 0.00 79 1029.7
20180421003350 32 22 0.9 0.0 0.00 0.00 0.00 79 1029.6
20180421002844 32 22 0.9 0.0 0.00 0.00 0.00 80 1029.7
20180421002349 32 22 0.9 0.0 0.00 0.00 0.00 79 1030.0
20180421001852 33 22 0.9 0.0 0.00 0.00 0.00 77 1030.1
20180421001334 33 22 1.7 0.0 0.00 0.00 0.00 77 1029.9
20180421000838 33 22 2.6 0.0 0.00 0.00 0.00 77 1030.1
20180421000402 33 22 2.6 0.0 0.00 0.00 0.00 77 1029.9
20180420235834 34 22 2.6 0.0 0.00 0.00 0.00 78 1029.7
20180420235359 34 22 1.7 0.0 0.00 0.00 0.00 80 1029.9
20180420234842 34 22 3.5 0.0 0.00 0.00 0.00 83 1030.0
20180420234337 34 22 2.6 0.0 0.00 0.00 0.00 84 1030.1
20180420233843 34 22 6.1 0.0 0.00 0.00 0.00 84 1029.9
20180420233348 35 22 5.2 0.0 0.00 0.00 0.00 84 1029.8
20180420232858 35 22 4.3 0.0 0.00 0.00 0.00 84 1029.8
20180420232400 35 22 5.2 0.0 0.00 0.00 0.00 85 1030.0
20180420231839 35 22 5.2 0.0 0.00 0.00 0.00 86 1029.8
20180420231404 35 22 5.2 0.0 0.00 0.00 0.00 85 1030.0
20180420230847 35 22 6.1 0.0 0.00 0.00 0.00 85 1030.1
20180420230351 35 22 7.0 0.0 0.00 0.00 0.00 86 1029.9
20180420225843 35 22 6.1 0.0 0.00 0.00 0.00 85 1029.9
20180420225342 35 22 5.2 0.0 0.00 0.00 0.00 84 1030.1
20180420224845 35 22 6.1 0.0 0.00 0.00 0.00 83 1030.1
20180420224353 35 22 5.2 0.0 0.00 0.00 0.00 82 1030.3
20180420223833 35 22 6.1 0.0 0.00 0.00 0.00 83 1030.0
20180420223420 35 22 5.2 0.0 0.00 0.00 0.00 82 1030.1
20180420222851 35 22 5.2 0.0 0.00 0.00 0.00 80 1030.1
20180420222354 35 22 4.3 0.0 0.00 0.00 0.00 80 1030.2
20180420221833 35 22 6.1 0.0 0.00 0.00 0.00 78 1030.1
20180420221338 35 22 6.1 0.0 0.00 0.00 0.00 79 1030.1
20180420220842 35 22 5.2 0.0 0.00 0.00 0.00 80 1030.1
20180420220346 35 22 7.0 0.0 0.00 0.00 0.00 79 1030.2
20180420215839 36 22 7.8 0.0 0.00 0.00 0.00 80 1030.4
20180420215345 36 22 6.1 0.0 0.00 0.00 0.00 79 1030.3
20180420214906 36 22 5.2 0.0 0.00 0.00 0.00 80 1030.2
20180420214349 36 22 6.1 0.0 0.00 0.00 0.00 81 1030.4
20180420213851 36 22 7.0 0.0 0.00 0.00 0.00 83 1030.3
20180420213418 36 22 6.1 0.0 0.00 0.00 0.00 83 1030.3
20180420212850 36 22 5.2 0.0 0.00 0.00 0.00 83 1030.1
20180420212353 36 22 6.1 0.0 0.00 0.00 0.00 83 1030.3
20180420211835 36 22 6.1 0.0 0.00 0.00 0.00 81 1030.4
20180420211340 36 22 5.2 0.0 0.00 0.00 0.00 82 1030.5
20180420210840 37 22 4.3 0.0 0.00 0.00 0.00 82 1030.4
20180420210401 37 22 3.5 0.0 0.00 0.00 0.00 83 1030.5
20180420205909 37 22 5.2 0.0 0.00 0.00 0.00 82 1030.3
20180420205352 37 22 6.1 0.0 0.00 0.00 0.00 84 1030.3
20180420204914 37 22 6.1 0.0 0.00 0.00 0.00 84 1030.4
20180420204337 37 22 6.1 0.0 0.00 0.00 0.00 84 1030.5
20180420203902 38 22 4.3 0.0 0.00 0.00 0.00 84 1030.4
20180420203401 38 22 4.3 0.0 0.00 0.00 0.00 83 1030.5
20180420202850 38 22 2.6 0.0 0.00 0.00 0.00 81 1030.3
20180420202333 38 22 1.7 0.0 0.00 0.00 0.00 81 1030.5
20180420201839 39 22 2.6 0.0 0.00 0.00 0.00 80 1030.4
20180420201339 39 22 1.7 0.0 0.00 0.00 0.00 79 1030.3
20180420200903 39 22 1.7 0.0 0.00 0.00 0.00 80 1030.4
20180420200423 39 22 0.9 0.0 0.00 0.00 0.00 81 1030.5
20180420195854 39 22 1.7 0.0 0.00 0.00 0.00 82 1030.4
20180420195350 39 22 1.7 0.0 0.00 0.00 0.00 81 1030.6
20180420194833 39 22 0.9 0.0 0.00 0.00 0.00 82 1030.3
20180420194338 39 22 1.7 0.0 0.00 0.00 0.00 83 1030.5
20180420193905 38 22 1.7 0.0 0.00 0.00 0.00 83 1030.5
20180420193349 38 22 0.9 0.0 0.00 0.00 0.00 84 1030.7
20180420192841 38 22 1.7 0.0 0.00 0.00 0.00 85 1030.5
20180420192342 37 22 1.7 0.0 0.00 0.00 0.00 86 1030.7
20180420191846 37 22 1.7 0.0 0.00 0.00 0.00 84 1030.7
20180420191350 38 22 3.5 0.0 0.00 0.00 0.00 83 1030.7
20180420190849 37 22 2.6 0.0 0.00 0.00 0.00 84 1031.1
20180420190411 37 22 2.6 0.0 0.00 0.00 0.00 83 1030.7
20180420185843 38 22 2.6 0.0 0.00 0.00 0.00 82 1031.0
20180420185345 38 22 4.3 0.0 0.00 0.00 0.00 81 1030.8
20180420184848 38 22 5.2 0.0 0.00 0.00 0.00 81 1030.9
20180420184351 38 22 7.0 0.0 0.00 0.00 0.00 81 1030.8
20180420183834 38 22 7.0 0.0 0.00 0.00 0.00 81 1031.1
20180420183420 37 22 7.8 0.0 0.00 0.00 0.00 81 1030.8
20180420182851 37 22 8.7 0.0 0.00 0.00 0.00 81 1031.1
20180420182334 37 22 7.8 0.0 0.00 0.00 0.00 81 1031.2
20180420181901 37 22 7.8 0.0 0.00 0.00 0.00 82 1031.0
20180420181338 37 22 8.7 0.0 0.00 0.00 0.00 81 1031.1
20180420180901 37 22 8.7 0.0 0.00 0.00 0.00 81 1031.0
20180420180345 37 22 7.8 0.0 0.00 0.00 0.00 81 1030.8
20180420175839 37 22 8.7 0.0 0.00 0.00 0.00 81 1030.7
20180420175338 37 22 8.7 0.0 0.00 0.00 0.00 82 1030.8
20180420174902 37 22 6.1 0.0 0.00 0.00 0.00 83 1030.9
20180420174344 37 22 8.7 0.0 0.00 0.00 0.00 82 1031.0
20180420173846 37 22 7.8 0.0 0.00 0.00 0.00 82 1030.8
20180420173351 37 22 7.8 0.0 0.00 0.00 0.00 82 1030.8
20180420172846 37 22 7.8 0.0 0.00 0.00 0.00 82 1031.0
20180420172348 37 22 7.8 0.0 0.00 0.00 0.00 81 1031.2
20180420171847 37 22 8.7 0.0 0.00 0.00 0.00 82 1031.1
20180420171353 37 22 8.7 0.0 0.00 0.00 0.00 81 1031.0
20180420170915 37 22 8.7 9.6 0.00 0.00 0.00 81 1031.3
20180420170358 37 22 7.8 10.4 0.00 0.00 0.00 81 1030.7
20180420165906 37 22 8.7 10.4 0.00 0.00 0.00 79 1031.0
20180420165353 37 22 7.0 9.6 0.00 0.00 0.00 80 1031.4
20180420164852 37 22 8.7 9.6 0.00 0.00 0.00 79 1030.9
20180420164332 38 22 7.8 9.6 0.00 0.00 0.00 78 1031.0
20180420163856 38 22 8.7 9.6 0.00 0.00 0.00 78 1031.2
20180420163359 38 22 7.8 9.6 0.00 0.00 0.00 78 1031.0
20180420162848 38 22 7.8 10.4 0.00 0.00 0.00 77 1031.1
20180420162345 38 22 7.8 10.4 0.00 0.00 0.00 77 1031.1
20180420161845 38 22 7.8 10.4 0.00 0.00 0.00 77 1031.5
20180420161349 38 22 8.7 10.4 0.00 0.00 0.00 77 1031.3
20180420160850 38 22 7.8 11.3 0.00 0.00 0.00 77 1031.1
20180420160350 39 22 8.7 11.3 0.00 0.00 0.00 76 1031.0
20180420155840 39 22 8.7 10.4 0.00 0.00 0.00 76 1031.2
20180420155405 39 22 9.6 11.3 0.00 0.00 0.00 74 1031.1
20180420154844 39 22 9.6 11.3 0.00 0.00 0.00 75 1031.3
20180420154344 39 22 9.6 11.3 0.00 0.00 0.00 74 1030.9
20180420153850 39 22 9.6 11.3 0.00 0.00 0.00 74 1031.0
20180420153357 39 22 8.7 11.3 0.00 0.00 0.00 73 1031.0
20180420152846 39 21 7.8 10.4 0.00 0.00 0.00 74 1030.9
20180420152332 40 21 7.0 9.6 0.00 0.00 0.00 74 1030.8
20180420151853 40 21 7.8 10.4 0.00 0.00 0.00 74 1030.7
20180420151353 40 21 8.7 10.4 0.00 0.00 0.00 73 1030.5
20180420150852 40 21 8.7 10.4 0.00 0.00 0.00 72 1030.8